If you wish to contribute or participate in the discussions about articles you are invited to join SKYbrary as a registered user

 Actions

Southampton Airport

From SKYbrary Wiki

EGHI
Airport
ICAO: EGHI – IATA: SOU
Summary
Name Southampton Airport
Region Europe
Territory United Kingdom GB.gif
Location Eastleigh,Southampton, England.
Serving Southampton
Elevation 13.411 m
44 ft
44 ft13.411 m
Coordinates 50° 56' 59.32" N, 1° 21' 23.39" W
Runways
Designator Length Width Surface ROPS
2/20 1723 m5,652.887 ft
37 m121.391 ft
ASP yes/yes


METAR
Observation EGHI 271620Z 30011KT 260V330 9999 FEW045 09/M02 Q1009
Station Southampton / Weather Centre
Date/Time 27 February 2020 16:20:00
Wind direction 300°
Wind speed 11 kts
Lowest cloud amount few clouds
Temperature 9°C
Dew point
Humidity 45%
QNH 1009 hPa
Weather condition n/a

Southampton Airport

ICAO: EGHI IATA: SOU

Description

Small domestic and international airport serving the city of Southampton and environs; has co-located railway station.

Climatology

Temperate Marine climate/Oceanic climate (Köppen climate classification Cfb). Moderately cool summer and comparatively warm winter with a temperature range of only 14°C57.2 °F
287.15 K
516.87 °R
. Prevailing south-westerly winds from the Atlantic Ocean.

Maps

Terrain

Loading map...

Airport Layout

Loading map...